Time,TemperatureF,DewpointF,PressureIn,WindDirection,WindDirectionDegrees,WindSpeedMPH,WindSpeedGustMPH,Humidity,HourlyPrecipIn,Conditions,Clouds,dailyrainin,SoftwareType,DateUTC
2013-04-11 20:54:00,34.5,4.7,29.69,North,0,11.5,0.0,28,0.00,CLR,,0.00,WeatherDisplay:10.37,2013-04-12 00:54:00,
2013-04-11 20:55:00,34.5,4.7,29.69,North,0,11.5,0.0,28,0.00,CLR,,0.00,WeatherDisplay:10.37,2013-04-12 00:55:00,
2013-04-11 20:58:00,34.5,4.7,29.69,North,0,11.5,0.0,28,0.00,CLR,,0.00,WeatherDisplay:10.37,2013-04-12 00:58:00,
2013-04-11 20:59:00,34.5,4.7,29.69,SE,135,1.0,12.0,28,0.00,CLR,CLR,0.00,WeatherDisplay:10.37,2013-04-12 00:59:00,
2013-04-11 21:06:00,34.5,4.7,29.69,North,0,11.5,0.0,28,0.00,CLR,,0.00,WeatherDisplay:10.37,2013-04-12 01:06:00,
2013-04-11 21:11:00,34.3,4.5,29.60,ENE,67,4.6,4.6,28,0.00,CLR,,0.00,WeatherDisplay:10.37,2013-04-12 01:11:00,
2013-04-11 21:16:00,34.3,4.5,29.65,ENE,67,8.4,8.4,28,0.00,CLR,,0.00,WeatherDisplay:10.37,2013-04-12 01:16:00,
2013-04-11 21:21:00,34.3,4.5,29.64,ENE,67,8.4,8.4,28,0.00,CLR,,0.00,WeatherDisplay:10.37,2013-04-12 01:21:00,
2013-04-11 21:26:00,34.3,4.5,29.64,ENE,67,8.4,8.4,28,0.00,CLR,,0.00,WeatherDisplay:10.37,2013-04-12 01:26:00,
2013-04-11 21:32:00,34.3,4.5,29.64,ENE,67,8.4,8.4,28,0.00,CLR,,0.00,WeatherDisplay:10.37,2013-04-12 01:32:00,
2013-04-11 21:37:00,34.3,4.5,29.64,NE,45,8.4,8.4,28,0.00,CLR,,0.00,WeatherDisplay:10.37,2013-04-12 01:37:00,
2013-04-11 21:42:00,34.3,4.5,29.64,NE,45,8.4,8.4,28,0.00,CLR,,0.00,WeatherDisplay:10.37,2013-04-12 01:42:00,
2013-04-11 21:47:00,34.3,4.5,29.63,NE,45,8.4,8.4,28,0.00,CLR,,0.00,WeatherDisplay:10.37,2013-04-12 01:47:00,
2013-04-11 21:52:00,34.3,4.5,29.62,ESE,112,8.4,8.4,28,0.00,CLR,,0.00,WeatherDisplay:10.37,2013-04-12 01:52:00,
2013-04-11 21:57:00,34.3,4.5,29.62,ENE,67,10.4,10.4,28,0.00,CLR,,0.00,WeatherDisplay:10.37,2013-04-12 01:57:00,
2013-04-11 22:02:00,34.2,4.4,29.61,SE,135,10.4,10.4,28,0.00,CLR,,0.00,WeatherDisplay:10.37,2013-04-12 02:02:00,
2013-04-11 22:07:00,34.2,4.4,29.61,NE,45,10.4,10.4,28,0.00,CLR,,0.00,WeatherDisplay:10.37,2013-04-12 02:07:00,
2013-04-11 22:13:00,34.2,4.4,29.61,NE,45,6.3,6.3,28,0.00,CLR,,0.00,WeatherDisplay:10.37,2013-04-12 02:13:00,
2013-04-11 22:18:00,34.0,4.2,29.60,ESE,112,6.3,6.3,28,0.00,CLR,,0.00,WeatherDisplay:10.37,2013-04-12 02:18:00,
2013-04-11 22:23:00,34.0,4.2,29.59,ESE,112,9.5,9.5,28,0.00,CLR,,0.00,WeatherDisplay:10.37,2013-04-12 02:23:00,
2013-04-11 22:28:00,33.8,4.1,29.57,ENE,67,9.5,9.5,28,0.00,CLR,,0.00,WeatherDisplay:10.37,2013-04-12 02:28:00,
2013-04-11 22:33:00,33.8,4.1,29.56,ENE,67,9.5,9.5,28,0.00,CLR,,0.00,WeatherDisplay:10.37,2013-04-12 02:33:00,
2013-04-11 22:38:00,33.8,4.1,29.56,NE,45,9.5,9.5,28,0.00,CLR,,0.00,WeatherDisplay:10.37,2013-04-12 02:38:00,
2013-04-11 22:43:00,33.8,4.1,29.57,East,90,9.5,9.5,28,0.00,CLR,,0.00,WeatherDisplay:10.37,2013-04-12 02:43:00,
2013-04-11 22:48:00,33.6,3.9,29.57,NNE,22,9.5,9.5,28,0.00,CLR,,0.00,WeatherDisplay:10.37,2013-04-12 02:48:00,
2013-04-11 22:53:00,33.6,3.9,29.57,NNE,22,9.5,9.5,28,0.00,CLR,,0.00,WeatherDisplay:10.37,2013-04-12 02:53:00,
2013-04-11 22:58:00,33.6,3.9,29.57,NNE,22,9.5,9.5,28,0.00,CLR,,0.00,WeatherDisplay:10.37,2013-04-12 02:58:00,
2013-04-11 23:03:00,33.8,4.1,29.56,NNE,22,9.5,9.5,28,0.00,CLR,,0.00,WeatherDisplay:10.37,2013-04-12 03:03:00,
2013-04-11 23:08:00,33.8,4.1,29.53,East,90,4.7,4.7,28,0.00,CLR,,0.00,WeatherDisplay:10.37,2013-04-12 03:08:00,
2013-04-11 23:13:00,33.6,3.9,29.52,East,90,7.3,7.3,28,0.00,CLR,,0.00,WeatherDisplay:10.37,2013-04-12 03:13:00,
2013-04-11 23:18:00,33.8,4.1,29.53,ENE,67,7.3,7.3,28,0.00,CLR,,0.00,WeatherDisplay:10.37,2013-04-12 03:18:00,
2013-04-11 23:23:00,33.6,3.9,29.53,East,90,7.3,7.3,28,0.00,CLR,,0.00,WeatherDisplay:10.37,2013-04-12 03:23:00,
2013-04-11 23:28:00,33.6,3.9,29.54,ESE,112,7.3,7.3,28,0.00,CLR,,0.00,WeatherDisplay:10.37,2013-04-12 03:28:00,
2013-04-11 23:33:00,33.8,4.1,29.54,ESE,112,7.3,7.3,28,0.00,CLR,,0.00,WeatherDisplay:10.37,2013-04-12 03:33:00,
2013-04-11 23:38:00,34.0,4.2,29.53,ESE,112,7.3,7.3,28,0.00,CLR,,0.00,WeatherDisplay:10.37,2013-04-12 03:38:00,
2013-04-11 23:43:00,34.0,4.2,29.54,NE,45,7.3,7.3,28,0.00,CLR,,0.00,WeatherDisplay:10.37,2013-04-12 03:43:00,
2013-04-11 23:48:00,34.0,4.2,29.53,NE,45,7.3,7.3,28,0.00,CLR,,0.00,WeatherDisplay:10.37,2013-04-12 03:48:00,
2013-04-11 23:53:00,34.0,4.2,29.52,NE,45,7.3,7.3,28,0.00,CLR,,0.00,WeatherDisplay:10.37,2013-04-12 03:53:00,
2013-04-11 23:58:00,34.0,4.2,29.53,NE,45,7.3,7.3,28,0.00,CLR,,0.00,WeatherDisplay:10.37,2013-04-12 03:58:00,